Orbital elements of COSMOS 2299
| Launched | 25 December 1994 |
| Flight ended | – |
| Launch site | Plesetsk Missile and Space Complex, Russia |
| Owner | Commonwealth of Independent States (former USSR) |
| NORAD ID | 23441 |
| Date fetched |
Epoch osculation |
Inc. [°] |
Ecc. | RA asc node [hr] |
Arg Peri. [°] |
Mean anom [°] |
Mean motion [rev/day] |
Abs. mag |
| Date fetched |
Epoch osculation |
Inc. [°] |
Ecc. | RA asc node [hr] |
Arg Peri. [°] |
Mean anom [°] |
Mean motion [rev/day] |
Abs. mag |
| 2026 May 05 17:57 | 2026 May 05 12:22:08 | 82.5684 | 0.00064 | 21.6148 | 301.5961 | 58.4502 | 12.63798 | 7.743 |
| 2026 May 04 17:57 | 2026 Apr 30 14:34:11 | 82.5690 | 0.00066 | 21.8245 | 314.2488 | 58.4502 | 12.63798 | 7.743 |
| 2026 May 03 17:57 | 2026 Apr 30 14:34:11 | 82.5690 | 0.00066 | 21.8245 | 314.2488 | 58.4502 | 12.63798 | 7.743 |
| 2026 May 02 17:57 | 2026 Apr 30 14:34:11 | 82.5690 | 0.00066 | 21.8245 | 314.2488 | 58.4502 | 12.63798 | 7.743 |
| 2026 May 01 17:56 | 2026 Apr 30 14:34:11 | 82.5690 | 0.00066 | 21.8245 | 314.2488 | 58.4502 | 12.63798 | 7.743 |
| 2026 Apr 30 17:56 | 2026 Apr 30 14:34:11 | 82.5690 | 0.00066 | 21.8245 | 314.2488 | 58.4502 | 12.63798 | 7.743 |
| 2026 Apr 29 17:57 | 2026 Apr 24 08:28:15 | 82.5699 | 0.00069 | 22.0917 | 329.7260 | 58.4502 | 12.63798 | 7.743 |
| 2026 Apr 28 17:56 | 2026 Apr 24 08:28:15 | 82.5699 | 0.00069 | 22.0917 | 329.7260 | 58.4502 | 12.63798 | 7.743 |
| 2026 Apr 27 17:58 | 2026 Apr 24 08:28:15 | 82.5699 | 0.00069 | 22.0917 | 329.7260 | 58.4502 | 12.63798 | 7.743 |
| 2026 Apr 26 17:58 | 2026 Apr 24 08:28:15 | 82.5699 | 0.00069 | 22.0917 | 329.7260 | 58.4502 | 12.63798 | 7.743 |
| 2026 Apr 25 17:58 | 2026 Apr 24 08:28:15 | 82.5699 | 0.00069 | 22.0917 | 329.7260 | 58.4502 | 12.63798 | 7.743 |
| 2026 Apr 24 17:59 | 2026 Apr 24 08:28:15 | 82.5699 | 0.00069 | 22.0917 | 329.7260 | 58.4502 | 12.63798 | 7.743 |
| 2026 Apr 23 17:57 | 2026 Apr 19 08:46:18 | 82.5708 | 0.00071 | 22.3047 | 341.6951 | 58.4502 | 12.63798 | 7.743 |
| 2026 Apr 22 17:57 | 2026 Apr 19 08:46:18 | 82.5708 | 0.00071 | 22.3047 | 341.6951 | 58.4502 | 12.63798 | 7.743 |
| 2026 Apr 21 17:57 | 2026 Apr 19 08:46:18 | 82.5708 | 0.00071 | 22.3047 | 341.6951 | 58.4502 | 12.63798 | 7.743 |
| 2026 Apr 20 17:57 | 2026 Apr 19 08:46:18 | 82.5708 | 0.00071 | 22.3047 | 341.6951 | 58.4502 | 12.63798 | 7.743 |
| 2026 Apr 19 17:58 | 2026 Apr 19 08:46:18 | 82.5708 | 0.00071 | 22.3047 | 341.6951 | 58.4502 | 12.63798 | 7.743 |
| 2026 Apr 18 17:56 | 2026 Apr 13 00:46:21 | 82.5721 | 0.00074 | 22.5752 | 356.1944 | 58.4502 | 12.63798 | 7.743 |
| 2026 Apr 16 17:57 | 2026 Apr 13 00:46:21 | 82.5721 | 0.00074 | 22.5752 | 356.1944 | 58.4502 | 12.63798 | 7.743 |
| 2026 Apr 14 17:57 | 2026 Apr 13 00:46:21 | 82.5721 | 0.00074 | 22.5752 | 356.1944 | 58.4502 | 12.63798 | 7.743 |
| 2026 Apr 13 17:57 | 2026 Apr 13 00:46:21 | 82.5721 | 0.00074 | 22.5752 | 356.1944 | 58.4502 | 12.63798 | 7.743 |
| 2026 Apr 12 17:57 | 2026 Apr 08 08:40:24 | 82.5730 | 0.00076 | 22.7747 | 6.5093 | 58.4502 | 12.63798 | 7.743 |
| 2026 Apr 11 17:57 | 2026 Apr 08 08:40:24 | 82.5730 | 0.00076 | 22.7747 | 6.5093 | 58.4502 | 12.63798 | 7.743 |
| 2026 Apr 10 17:58 | 2026 Apr 08 08:40:24 | 82.5730 | 0.00076 | 22.7747 | 6.5093 | 58.4502 | 12.63798 | 7.743 |
| 2026 Apr 09 18:01 | 2026 Apr 08 08:40:24 | 82.5730 | 0.00076 | 22.7747 | 6.5093 | 58.4502 | 12.63798 | 7.743 |
| 2026 Apr 08 17:57 | 2026 Apr 08 08:40:24 | 82.5730 | 0.00076 | 22.7747 | 6.5093 | 58.4502 | 12.63798 | 7.743 |